Showing default

COSMOS 81, 1571

Orbit data source: Space-Track

COSMOS 81, 1571 is a payload satellite owned by OKB-10 (CIS) in LEO that was launched on Fri, 03 Sep 1965 UTC via a KOSMOS 65S3 launch vehicle from the Tyuratam Missile And Space Complex (TTMTR). Payloads include a variety of satellites, spacecraft, and rockets equipped with specific instruments for various scientific and technological missions. These include communications satellites like Starlink; space stations such as the ISS; scientific satellites like the Hubble; Earth observation satellites from companies like Planet Labs, Umbra, and HawkEye 360; GPS; miniature CubeSats for education and research; and military/defense satellites.

Loading next visibility...
COSMOS 81 details
Identifier
1571, 1965-070B
Orbit
LEO
Last TLE update16 hours ago
Origin
Flag of CISOKB-10 (CIS)
ManufacturerOKB-10
MissionDefense Communications
Bus & MotorSTRELA-1 11F610, Unknown motor
Mass50 kg wet, 50 kg dry
Launch date (UTC)
1965-09-03 (59 years ago)
Launch vehicle
KOSMOS 65S3
Launch site
Tyuratam Missile And Space Complex (TTMTR)
Object type
Payload
Rocket body
Debris
Shape & HBRPoly, 0.8 m
Radar Cross Section0.731 m², Medium (>0.1 m² and < 1m²)

Expand to show TLE details & history

TLE from 16 hours ago
0 COSMOS 81
1 01571U 65070B   24355.83891602 -.00000086  00000-0  60814-4 0  9996
2 01571  56.0582 224.6432 0090284  78.2225  27.4286 12.48858595704740
Epoch: 2024-12-20T20:08Z
Definitive object data (Epoch: 2024-12-20T20:08:02.344Z)
Latitude52.96853°
Longitude-49.85193°
Altitude1,413.434 km
Speed7.188 km/s
True Right ascension22h 48m 13s
True Declination52° 49' 01"
Sunlit
Object was in daylight at TLE epoch
Visualization TLE readout
Latitude-51.70677°
Longitude68.94836°
Altitude1,557.685 km
Speed7.057 km/s
Apparent Right ascension03h 01m 50s
Apparent Declination-61° 38' 33"
Sunlit
Object is in daylight
Visualization observer readout
Local Sidereal Time11:18:23
Azimuth217.96° SW
Elevation-50.274°
Doppler factor1
Orbital elements
Apogee altitude1,539.944 km
Perigee altitude1,398.248 km
Semi-major axis7,847.233 km
Eccentricity0.0090284
Inclination56.0582°
RAAN224.6432°
Arg. of periapsis78.2225°
True anomaly27.90999°
Mean anomaly27.4286°
Eccentric anomaly27.66881°
Mean motion3.12225 °/min
BSTAR0.000060814
Orbital period115.3 mins
Loading maneuver chart data...
Loading historical data...
Loading historical data...
Loading historical data...
Loading historical data...
Loading historical data...
Loading historical data...
Loading historical data...

COSMOS 81 Visibility forecast

Observer location: undefined°, undefined

Span
Click to sort rows by Start time (UTC) header in descending order
Start Az.
Max El. time (UTC)
Max El. Az.
Max El.
End time (UTC)
End Az.
15 mins2024-12-21 16:48:36.946Z190.572° SSW2024-12-21 16:55:36.946Z130.527° SE35.049°2024-12-21 17:03:36.946Z56.169° ENE
15 mins2024-12-21 18:49:36.946Z249.765° W2024-12-21 18:56:36.946Z332.128° NNW39.857°2024-12-21 19:04:36.946Z41.808° NE
13 mins2024-12-21 20:52:36.946Z297.911° NW2024-12-21 20:58:36.946Z349.872° N25.402°2024-12-21 21:05:36.946Z46.285° ENE
13 mins2024-12-21 22:55:36.946Z322.866° NNW2024-12-21 23:01:36.946Z16.733° NNE27.898°2024-12-21 23:08:36.946Z76.512° E
15 mins2024-12-22 00:56:36.946Z318.025° NNW2024-12-22 01:03:36.946Z48.845° ENE44.023°2024-12-22 01:11:36.946Z127.399° SE
13 mins2024-12-22 02:57:36.946Z291.065° WNW2024-12-22 03:03:36.946Z237.453° WSW26.882°2024-12-22 03:10:36.946Z183.939° SSW
|